{"data":{"norad_id":57669,"intl_designator":"2023-124G","name":"STARLINK-30271","alt_names":[],"object_type":"PAYLOAD","status":"ACTIVE","operator":null,"country":"US","launch_date":"2023-08-22","launch_site_code":"AFWTR","launch_vehicle":null,"mission":null,"orbit_class":"UNKNOWN","rcs_meters":null,"size_class":null,"mass_kg":null,"dimensions":null,"purposes":["comms"],"wikipedia_slug":null,"has_3d_model":false,"image_url":null,"decayed_at":null,"tle_current":{"epoch":"2026-09-20T20:34:30.561888Z","epoch_age_seconds":100814,"freshness":"FRESH","line1":"1 57669U 23124G   26263.85729817  .00002035  00000+0  77295-4 0  9994","line2":"2 57669  53.1620  18.9219 0000627  63.6683 296.4383 15.31701182173464","mean_motion":15.31701182,"eccentricity":6.27e-5,"inclination_deg":53.162,"raan_deg":18.9219,"arg_perigee_deg":63.6683,"mean_anomaly_deg":296.4383,"bstar":7.7295e-5,"rev_number":17346,"period_min":94.013115411959,"perigee_km":470.30704738074,"apogee_km":471.1658961141,"semimajor_km":6848.8734717474,"source":"CELESTRAK","updated_at":"2026-09-21T09:00:33.670848Z"}}}